| time (UTC) | temp C | wind direction | speed KPH | gust KPH | rain 1hr cm | rain 24hr cm | rain mn cm | humidity % | barometer mb |
| 20260507230029 | 8 | 188 | 9.7 | 17.7 | 0.00 | 0.00 | 0.00 | 78 | 1013.2 |
| 20260507224534 | 8 | 182 | 4.8 | 16.1 | 0.00 | 0.00 | 0.00 | 79 | 1013.2 |
| 20260507223028 | 9 | 178 | 4.8 | 12.9 | 0.00 | 0.00 | 0.00 | 79 | 1013.2 |
| 20260507221527 | 9 | 190 | 8.0 | 16.1 | 0.00 | 0.00 | 0.00 | 78 | 1013.2 |
| 20260507220026 | 9 | 196 | 8.0 | 20.9 | 0.00 | 0.00 | 0.00 | 78 | 1013.1 |
| 20260507214528 | 9 | 161 | 11.3 | 22.5 | 0.00 | 0.00 | 0.00 | 78 | 1013.0 |
| 20260507213026 | 10 | 165 | 11.3 | 20.9 | 0.00 | 0.00 | 0.00 | 78 | 1013.0 |
| 20260507211525 | 10 | 160 | 8.0 | 17.7 | 0.00 | 0.00 | 0.00 | 76 | 1013.1 |
| 20260507210038 | 10 | 182 | 9.7 | 20.9 | 0.00 | 0.00 | 0.00 | 75 | 1013.1 |
| 20260507204524 | 10 | 177 | 9.7 | 17.7 | 0.00 | 0.00 | 0.00 | 74 | 1013.0 |
| 20260507203023 | 10 | 196 | 8.0 | 22.5 | 0.00 | 0.00 | 0.00 | 73 | 1013.0 |
| 20260507201523 | 10 | 171 | 9.7 | 19.3 | 0.00 | 0.00 | 0.00 | 73 | 1012.8 |
| 20260507200026 | 11 | 175 | 8.0 | 20.9 | 0.00 | 0.00 | 0.00 | 72 | 1012.6 |
| 20260507194526 | 11 | 194 | 6.4 | 17.7 | 0.00 | 0.00 | 0.00 | 72 | 1012.5 |
| 20260507193023 | 11 | 161 | 8.0 | 22.5 | 0.00 | 0.00 | 0.00 | 71 | 1012.4 |
| 20260507191521 | 11 | 147 | 9.7 | 20.9 | 0.00 | 0.00 | 0.00 | 70 | 1012.3 |
| 20260507190023 | 11 | 169 | 9.7 | 17.7 | 0.00 | 0.00 | 0.00 | 68 | 1012.2 |
| 20260507184520 | 11 | 161 | 11.3 | 20.9 | 0.00 | 0.00 | 0.00 | 68 | 1012.3 |
| 20260507183025 | 11 | 188 | 9.7 | 20.9 | 0.00 | 0.00 | 0.00 | 68 | 1012.3 |
| 20260507181519 | 11 | 137 | 4.8 | 16.1 | 0.00 | 0.00 | 0.00 | 68 | 1012.2 |
| 20260507180021 | 11 | 160 | 6.4 | 20.9 | 0.00 | 0.00 | 0.00 | 68 | 1012.2 |
| 20260507174521 | 11 | 191 | 9.7 | 22.5 | 0.00 | 0.00 | 0.00 | 67 | 1012.3 |
| 20260507173019 | 11 | 171 | 12.9 | 22.5 | 0.00 | 0.00 | 0.00 | 67 | 1012.4 |
| 20260507171516 | 12 | 177 | 11.3 | 20.9 | 0.00 | 0.00 | 0.00 | 67 | 1012.3 |
| 20260507170016 | 12 | 167 | 11.3 | 24.1 | 0.00 | 0.00 | 0.00 | 67 | 1012.4 |
| 20260507164515 | 12 | 196 | 14.5 | 25.7 | 0.00 | 0.00 | 0.00 | 67 | 1012.5 |
| 20260507163014 | 12 | 159 | 12.9 | 24.1 | 0.00 | 0.00 | 0.00 | 68 | 1012.5 |
| 20260507161514 | 12 | 167 | 14.5 | 32.2 | 0.00 | 0.00 | 0.00 | 69 | 1012.6 |
| 20260507160016 | 12 | 157 | 11.3 | 22.5 | 0.00 | 0.00 | 0.00 | 69 | 1012.5 |
| 20260507154521 | 12 | 163 | 8.0 | 24.1 | 0.00 | 0.00 | 0.00 | 70 | 1012.5 |
| 20260507153027 | 12 | 175 | 11.3 | 19.3 | 0.00 | 0.00 | 0.00 | 69 | 1012.7 |
| 20260507151509 | 12 | 182 | 11.3 | 24.1 | 0.00 | 0.00 | 0.00 | 68 | 1012.7 |
| 20260507150009 | 12 | 186 | 11.3 | 29.0 | 0.00 | 0.00 | 0.00 | 72 | 1012.8 |
| 20260507144509 | 12 | 167 | 11.3 | 20.9 | 0.00 | 0.00 | 0.00 | 73 | 1012.8 |
| 20260507143009 | 12 | 161 | 11.3 | 20.9 | 0.00 | 0.00 | 0.00 | 73 | 1012.9 |
| 20260507141506 | 11 | 168 | 8.0 | 16.1 | 0.00 | 0.00 | 0.00 | 75 | 1013.2 |
| 20260507140010 | 11 | 182 | 9.7 | 20.9 | 0.00 | 0.00 | 0.00 | 72 | 1013.3 |
| 20260507134506 | 11 | 187 | 8.0 | 19.3 | 0.00 | 0.00 | 0.00 | 73 | 1013.3 |
| 20260507133005 | 11 | 231 | 9.7 | 19.3 | 0.00 | 0.00 | 0.00 | 74 | 1013.4 |
| 20260507131508 | 11 | 172 | 9.7 | 19.3 | 0.00 | 0.00 | 0.00 | 75 | 1013.4 |
| 20260507130012 | 11 | 205 | 6.4 | 19.3 | 0.00 | 0.00 | 0.00 | 76 | 1013.4 |
| 20260507124503 | 10 | 179 | 11.3 | 20.9 | 0.00 | 0.00 | 0.00 | 74 | 1013.5 |
| 20260507123002 | 11 | 182 | 9.7 | 20.9 | 0.00 | 0.00 | 0.00 | 71 | 1013.5 |
| 20260507121502 | 12 | 168 | 9.7 | 20.9 | 0.00 | 0.00 | 0.00 | 70 | 1013.4 |
| 20260507120002 | 12 | 205 | 8.0 | 22.5 | 0.00 | 0.00 | 0.00 | 69 | 1013.5 |
| 20260507114501 | 12 | 213 | 11.3 | 19.3 | 0.00 | 0.00 | 0.00 | 66 | 1013.5 |
| 20260507113103 | 12 | 180 | 11.3 | 22.5 | 0.00 | 0.00 | 0.00 | 65 | 1013.5 |
| 20260507111600 | 13 | 197 | 8.0 | 24.1 | 0.00 | 0.00 | 0.00 | 63 | 1013.4 |
| 20260507110059 | 12 | 227 | 11.3 | 32.2 | 0.00 | 0.00 | 0.00 | 63 | 1013.5 |
| 20260507104557 | 12 | 190 | 12.9 | 29.0 | 0.00 | 0.00 | 0.00 | 65 | 1013.4 |
| 20260507103055 | 12 | 184 | 14.5 | 27.4 | 0.00 | 0.00 | 0.00 | 67 | 1013.3 |
| 20260507101556 | 12 | 189 | 11.3 | 27.4 | 0.00 | 0.00 | 0.00 | 65 | 1013.3 |
| 20260507100050 | 12 | 176 | 17.7 | 29.0 | 0.00 | 0.00 | 0.00 | 67 | 1013.2 |
| 20260507094547 | 10 | 172 | 11.3 | 25.7 | 0.00 | 0.00 | 0.00 | 66 | 1013.2 |
| 20260507093049 | 10 | 169 | 12.9 | 25.7 | 0.00 | 0.00 | 0.00 | 68 | 1013.1 |
| 20260507091544 | 10 | 188 | 12.9 | 25.7 | 0.00 | 0.00 | 0.00 | 68 | 1013.1 |
| 20260507090041 | 10 | 179 | 12.9 | 22.5 | 0.00 | 0.00 | 0.00 | 67 | 1013.0 |
| 20260507084540 | 10 | 196 | 8.0 | 19.3 | 0.00 | 0.00 | 0.00 | 72 | 1013.2 |
| 20260507083037 | 10 | 142 | 9.7 | 22.5 | 0.00 | 0.00 | 0.00 | 70 | 1013.2 |
| 20260507081537 | 9 | 162 | 9.7 | 19.3 | 0.00 | 0.00 | 0.00 | 72 | 1013.2 |
| 20260507080040 | 9 | 180 | 6.4 | 16.1 | 0.00 | 0.00 | 0.00 | 74 | 1013.0 |
| 20260507074537 | 8 | 190 | 8.0 | 19.3 | 0.00 | 0.00 | 0.00 | 74 | 1013.0 |
| 20260507073037 | 9 | 136 | 6.4 | 17.7 | 0.00 | 0.00 | 0.00 | 72 | 1012.9 |
| 20260507071559 | 10 | 152 | 4.8 | 12.9 | 0.00 | 0.00 | 0.00 | 72 | 1012.9 |
| 20260507070033 | 9 | 105 | 8.0 | 16.1 | 0.00 | 0.00 | 0.00 | 73 | 1012.9 |
| 20260507064530 | 8 | 117 | 6.4 | 12.9 | 0.00 | 0.00 | 0.00 | 75 | 1013.0 |
| 20260507063031 | 8 | 141 | 4.8 | 14.5 | 0.00 | 0.00 | 0.00 | 75 | 1013.0 |
| 20260507061527 | 8 | 120 | 6.4 | 22.5 | 0.00 | 0.00 | 0.00 | 76 | 1013.1 |
| 20260507060025 | 7 | 62 | 3.2 | 22.5 | 0.00 | 0.00 | 0.00 | 76 | 1013.1 |
| 20260507054523 | 7 | 161 | 6.4 | 19.3 | 0.00 | 0.00 | 0.00 | 76 | 1013.0 |
| 20260507053022 | 7 | 150 | 9.7 | 22.5 | 0.00 | 0.00 | 0.00 | 76 | 1013.0 |
| 20260507051528 | 7 | 151 | 6.4 | 19.3 | 0.00 | 0.00 | 0.00 | 78 | 1012.9 |
| 20260507050015 | 6 | 171 | 6.4 | 12.9 | 0.00 | 0.00 | 0.00 | 78 | 1012.9 |
| 20260507044512 | 6 | 196 | 8.0 | 24.1 | 0.00 | 0.00 | 0.00 | 77 | 1012.9 |
| 20260507043011 | 6 | 132 | 9.7 | 24.1 | 0.00 | 0.00 | 0.00 | 77 | 1012.8 |
| 20260507041508 | 6 | 175 | 8.0 | 19.3 | 0.00 | 0.00 | 0.00 | 77 | 1012.8 |
| 20260507040006 | 6 | 165 | 6.4 | 25.7 | 0.00 | 0.00 | 0.00 | 77 | 1012.9 |
| 20260507034512 | 6 | 140 | 8.0 | 19.3 | 0.00 | 0.00 | 0.00 | 77 | 1012.8 |
| 20260507033008 | 6 | 142 | 9.7 | 25.7 | 0.00 | 0.00 | 0.00 | 77 | 1012.7 |
| 20260507031600 | 6 | 171 | 8.0 | 22.5 | 0.00 | 0.00 | 0.00 | 76 | 1012.9 |
| 20260507030059 | 6 | 179 | 8.0 | 24.1 | 0.00 | 0.00 | 0.00 | 76 | 1013.0 |
| 20260507024603 | 6 | 155 | 9.7 | 20.9 | 0.00 | 0.00 | 0.00 | 76 | 1013.0 |
| 20260507023053 | 6 | 165 | 8.0 | 20.9 | 0.00 | 0.00 | 0.00 | 76 | 1013.0 |
| 20260507021551 | 7 | 178 | 8.0 | 16.1 | 0.00 | 0.00 | 0.00 | 75 | 1013.0 |
| 20260507020049 | 7 | 189 | 11.3 | 22.5 | 0.00 | 0.00 | 0.00 | 75 | 1013.2 |
| 20260507014554 | 7 | 177 | 6.4 | 17.7 | 0.00 | 0.00 | 0.00 | 75 | 1013.2 |
| 20260507013048 | 7 | 155 | 6.4 | 17.7 | 0.00 | 0.00 | 0.00 | 75 | 1013.2 |
| 20260507011542 | 7 | 124 | 8.0 | 19.3 | 0.00 | 0.00 | 0.00 | 74 | 1013.2 |
| 20260507010040 | 7 | 175 | 6.4 | 16.1 | 0.00 | 0.00 | 0.00 | 72 | 1013.2 |
| 20260507004543 | 7 | 190 | 9.7 | 20.9 | 0.00 | 0.00 | 0.00 | 71 | 1013.3 |
| 20260507003037 | 7 | 207 | 9.7 | 17.7 | 0.00 | 0.00 | 0.00 | 69 | 1013.3 |
| 20260507001543 | 7 | 149 | 8.0 | 19.3 | 0.00 | 0.00 | 0.00 | 69 | 1013.3 |
| 20260507000036 | 7 | 162 | 6.4 | 19.3 | 0.00 | 0.00 | 0.00 | 69 | 1013.4 |
| 20260506234533 | 7 | 127 | 4.8 | 11.3 | 0.00 | 0.00 | 0.00 | 71 | 1013.4 |
| 20260506233030 | 7 | 160 | 1.6 | 14.5 | 0.00 | 0.00 | 0.00 | 70 | 1013.4 |
| 20260506231528 | 7 | 98 | 6.4 | 14.5 | 0.00 | 0.00 | 0.00 | 69 | 1013.4 |